User: anonymous   Login
Location: Litvinovka
(48.6667°N, 34.3500°E)
Time: 01:10:11
(UTC+00:00)
Language:

SJ-11-01 - Orbit

View from above orbital plane
View from above orbital plane
View from above satellite
View from above satellite

Ground track
Ground track

The orbit data is extracted from the following two-line orbital elements,

1 36088U 09061A   20336.68709961  .00000139  00000-0  38215-4 0  9997
2 36088  97.9752   3.5232 0010231 272.5252  87.4775 14.60186929589010
Epoch (UTC): 01 December 2020 16:29:25
Eccentricity: 0.0010231
inclination: 97.9752°
perigee height: 685 km
apogee height: 700 km
right ascension of ascending node: 3.5232°
argument of perigee: 272.5252°
revolutions per day: 14.60186929
mean anomaly at epoch: 87.4775°
orbit number at epoch: 58901

The dashed part of the orbit path shows where the satellite is in the earth's shadow,  

DLR